User: anonymous   Login
Location: Unspecified
(0.0000°N, 0.0000°E)
Time: 07:50:54
(UTC+02:00)
Language:

Cosmos 407 Rocket - Orbit

View from above orbital plane
View from above orbital plane
View from above satellite
View from above satellite

Ground track
Ground track

The orbit data is extracted from the following two-line orbital elements,

1 05175U 71035B   16151.17253002  .00000024  00000-0  16546-4 0  9990
2 05175  74.0470 193.8911 0029106 139.4592 220.8737 14.37800013359895
Epoch (UTC): 30 May 2016 04:08:26
Eccentricity: 0.0029106
inclination: 74.0470°
perigee height: 745 km
apogee height: 786 km
right ascension of ascending node: 193.8911°
argument of perigee: 139.4592°
revolutions per day: 14.37800013
mean anomaly at epoch: 220.8737°
orbit number at epoch: 35989

The dashed part of the orbit path shows where the satellite is in the earth's shadow,  

DLR